Location: Antioch Baptist Church
(32.6696°N, 85.7327°W)
Time: 12:25:43
(UTC+00:00)

Cosmos 2034 Rocket - Pass Details

Date: 14 July 2020
Orbit: 959 x 1000 km, 82.9° (Epoch: 08 August)

Event Time Altitude Azimuth Distance (km) Brightness Sun altitude
Exits shadow 09:08:07 16° 184° (S) 2,247 5.5 -17.9°
Maximum altitude 09:13:06 89° 97° (E) 963 3.9 -17.1°
Drops below altitude 10° 09:19:17 10° 6° (N) 2,699 7.0 -16.1°
Sets 09:21:47 0° 6° (N) 3,652 7.7 -15.7°
